Location: Brno
(49.2000°N, 16.6330°E)
Time: 07:25:34
(UTC+02:00)

Transit 4A - All Passes

Search period start: 26 July 2021 00:00
Search period end: 05 August 2021 00:00
Orbit: 872 x 972 km, 66.8° (Epoch: 25 July)

Date Brightness Start Highest point End Pass type
(mag) Time Alt. Az. Time Alt. Az. Time Alt. Az.
26 Jul - 01:25:00 10° S 01:30:04 31° ESE 01:35:06 10° NE visible
26 Jul - 03:10:18 10° SW 03:16:07 58° NW 03:21:54 10° NNE visible
26 Jul - 04:59:30 10° WNW 05:03:43 20° NNW 05:07:55 10° NNE daylight
26 Jul - 06:49:34 10° NNW 06:52:29 14° N 06:55:24 10° NNE daylight
26 Jul - 08:36:29 10° NNW 08:41:06 23° NNE 08:45:44 10° E daylight
26 Jul - 10:22:31 10° NW 10:28:23 77° NE 10:34:20 10° SE daylight
26 Jul - 12:09:45 10° WNW 12:14:09 22° WSW 12:18:35 10° SSW daylight
27 Jul - 01:33:39 10° S 01:39:11 44° ESE 01:44:41 10° NE visible
27 Jul - 03:19:58 10° WSW 03:25:34 44° NW 03:31:08 10° NNE visible
27 Jul - 05:09:43 10° WNW 05:13:29 17° NNW 05:17:14 10° NNE daylight
27 Jul - 06:59:14 10° NNW 07:02:21 14° N 07:05:28 10° NE daylight
27 Jul - 08:45:43 10° NNW 08:50:45 29° NE 08:55:48 10° E daylight
27 Jul - 10:31:50 10° NW 10:37:42 79° WSW 10:43:39 10° SSE daylight
27 Jul - 12:19:56 10° WNW 12:23:08 15° WSW 12:26:22 10° SW daylight
28 Jul - 00:01:52 10° ESE 00:03:11 11° E 00:04:30 10° E visible
28 Jul - 01:42:34 10° SSW 01:48:22 62° ESE 01:54:08 10° NE visible
28 Jul - 03:29:47 10° WSW 03:35:05 34° NW 03:40:22 10° NNE visible
28 Jul - 05:19:57 10° NW 05:23:17 15° NNW 05:26:38 10° NNE daylight
28 Jul - 07:08:44 10° NNW 07:12:11 16° NNE 07:15:39 10° NE daylight
28 Jul - 08:54:57 10° NNW 09:00:19 36° NE 09:05:44 10° ESE daylight
28 Jul - 10:41:13 10° NW 10:46:56 57° WSW 10:52:45 10° SSE daylight
29 Jul - 00:08:33 10° SE 00:12:07 17° ESE 00:15:40 10° ENE visible
29 Jul - 01:51:43 10° SSW 01:57:38 86° SE 02:03:30 10° NE visible
29 Jul - 03:39:45 10° W 03:44:41 27° NNW 03:49:36 10° NNE visible
29 Jul - 05:30:07 10° NW 05:33:08 14° N 05:36:11 10° NNE daylight
29 Jul - 07:18:06 10° NNW 07:21:59 18° NNE 07:25:53 10° ENE daylight
29 Jul - 09:04:10 10° NNW 09:09:49 47° NE 09:15:31 10° ESE daylight
29 Jul - 10:50:42 10° NW 10:56:07 40° WSW 11:01:36 10° S daylight
30 Jul - 00:16:31 10° SSE 00:21:07 24° ESE 00:25:43 10° ENE visible
30 Jul - 02:01:04 10° SW 02:06:57 71° NW 02:12:48 10° NNE visible
30 Jul - 03:49:51 10° WNW 03:54:21 22° NNW 03:58:50 10° NNE visible
30 Jul - 05:40:07 10° NNW 05:43:00 14° N 05:45:54 10° NNE daylight
30 Jul - 07:27:23 10° NNW 07:31:44 21° NNE 07:36:06 10° ENE daylight
30 Jul - 09:13:25 10° NNW 09:19:15 63° NE 09:25:08 10° SE daylight
30 Jul - 11:00:19 10° NW 11:05:13 28° WSW 11:10:10 10° SSW daylight
31 Jul - 00:24:56 10° S 00:30:12 35° ESE 00:35:25 10° NE visible
31 Jul - 02:10:37 10° WSW 02:16:21 52° NW 02:22:04 10° NNE visible
31 Jul - 04:00:02 10° WNW 04:04:04 19° NNW 04:08:07 10° NNE visible
31 Jul - 05:49:55 10° NNW 05:52:53 14° N 05:55:51 10° NE daylight
31 Jul - 07:36:38 10° NNW 07:41:25 25° NNE 07:46:14 10° E daylight
31 Jul - 09:22:42 10° NW 09:28:36 85° NE 09:34:34 10° SE daylight
31 Jul - 11:10:11 10° WNW 11:14:14 20° WSW 11:18:21 10° SSW daylight
01 Aug - 00:33:41 10° S 00:39:20 49° ESE 00:44:56 10° NE visible
01 Aug - 02:20:20 10° WSW 02:25:49 40° NW 02:31:18 10° NNE visible
01 Aug - 04:10:15 10° NW 04:13:51 16° NNW 04:17:27 10° NNE visible
01 Aug - 05:59:31 10° NNW 06:02:45 15° N 06:05:58 10° NE daylight
01 Aug - 07:45:52 10° NNW 07:51:03 31° NE 07:56:15 10° E daylight
01 Aug - 09:32:03 10° NW 09:37:53 71° WSW 09:43:49 10° SSE daylight
01 Aug - 11:20:38 10° WNW 11:23:12 13° WSW 11:25:48 10° SW daylight
01 Aug - 23:00:50 10° SE 23:03:15 13° ESE 23:05:39 10° ENE visible
02 Aug - 00:42:41 10° SSW 00:48:33 70° ESE 00:54:21 10° NE visible
02 Aug - 02:30:12 10° W 02:35:22 31° NW 02:40:32 10° NNE visible
02 Aug - 04:20:28 10° NW 04:23:40 15° N 04:26:53 10° NNE visible
02 Aug - 06:08:57 10° NNW 06:12:34 16° NNE 06:16:11 10° NE daylight
02 Aug - 07:55:06 10° NNW 08:00:35 40° NE 08:06:08 10° ESE daylight
02 Aug - 09:41:27 10° NW 09:47:06 50° WSW 09:52:50 10° S daylight
02 Aug - 23:08:12 10° SSE 23:12:12 19° ESE 23:16:10 10° ENE visible
03 Aug - 00:51:56 10° SW 00:57:50 86° NW 01:03:42 10° NE visible
03 Aug - 02:40:13 10° W 02:45:00 25° NNW 02:49:46 10° NNE visible
03 Aug - 04:30:34 10° NW 04:33:32 14° N 04:36:29 10° NNE visible
03 Aug - 06:18:17 10° NNW 06:22:21 19° NNE 06:26:25 10° ENE daylight
03 Aug - 08:04:20 10° NNW 08:10:04 52° NE 08:15:52 10° ESE daylight
03 Aug - 09:50:58 10° NW 09:56:14 35° WSW 10:01:35 10° S daylight
03 Aug - 23:16:21 10° SSE 23:21:14 28° ESE 23:26:04 10° NE visible
04 Aug - 01:01:20 10° SW 01:07:10 63° NW 01:12:59 10° NNE visible
04 Aug - 02:50:20 10° WNW 02:54:41 21° NNW 02:59:01 10° NNE visible
04 Aug - 04:40:30 10° NNW 04:43:24 14° N 04:46:18 10° NNE visible
04 Aug - 06:27:34 10° NNW 06:32:05 22° NNE 06:36:37 10° ENE daylight
04 Aug - 08:13:36 10° NNW 08:19:28 70° NE 08:25:25 10° SE daylight
04 Aug - 10:00:40 10° WNW 10:05:19 25° WSW 10:10:02 10° SSW daylight
04 Aug - 23:24:55 10° S 23:30:19 39° ESE 23:35:42 10° NE visible
